SCP
0 0 0 0 0 0 0 0 0 0 0 0 0 1 1 1 1 1 1 1 1 0 1 1 2 3 3 3 3 3 4 4 3 3 2 2 2 2 3 3 2 2 2 2
0 0 0 0 0 0 0 0 0 0 0 0 0 1 1 1 1 1 1 1 0 0 1 1 2 3 4 4 4 4 4 4 3 3 3 3 3 3 3 3 2 2 2 2
0 0 0 0 0 0 0 0 0 0 0 0 0 1 1 1 1 1 1 1 1 0 1 1 2 3 3 4 4 5 5 4 3 3 3 4 4 3 3 2 2 2 2 2
0 0 0 0 0 0 0 0 0 0 0 0 0 0 1 1 1 1 1 1 1 1 1 1 1 2 2 3 3 4 5 5 4 3 4 4 4 3 2 2 2 2 2 2
0 0 0 0 0 0 0 0 0 0 0 0 0 0 0 1 1 1 1 1 1 1 1 1 1 1 2 2 2 2 3 4 4 4 3 3 3 2 2 2 2 2 2 2
0 0 0 0 0 0 0 0 0 0 0 0 0 0 0 0 0 1 1 1 1 1 1 1 1 1 1 2 2 2 2 2 3 4 4 3 3 2 2 2 1 1 2 2
0 0 0 0 0 0 0 1 1 1 1 0 0 0 1 1 0 1 1 1 1 1 1 1 2 2 1 2 2 2 2 2 3 3 4 4 3 2 2 2 1 1 1 2
0 0 0 0 0 0 0 1 1 1 1 0 0 0 1 0 0 1 1 1 1 1 1 2 2 2 2 1 2 2 2 2 2 3 3 3 2 2 2 2 1 1 1 1
0 0 0 0 0 0 0 1 1 1 0 0 0 1 1 0 1 1 1 1 1 1 1 2 2 2 1 1 2 2 2 2 2 2 2 2 1 1 2 2 1 1 1 1
0 0 0 0 0 0 0 1 1 1 0 0 0 0 0 1 1 1 1 1 1 1 1 1 2 1 1 1 2 2 2 2 2 2 1 1 1 1 2 2 1 1 1 1
0 0 0 0 0 0 0 1 1 1 0 0 0 0 0 1 1 1 1 1 1 1 1 1 1 1 1 1 2 2 2 2 2 1 1 1 1 1 1 1 1 1 1 1
0 0 0 0 0 0 0 1 1 1 0 0 0 0 0 0 1 1 1 1 1 1 1 1 1 1 1 1 1 1 1 1 1 1 1 1 1 1 1 1 1 1 1 1
0 0 0 0 0 0 0 0 0 0 0 0 0 0 0 0 1 1 1 1 1 1 1 0 0 1 1 1 1 1 1 1 1 1 1 1 1 1 1 1 1 1 1 1
0 0 0 0 0 0 0 0 0 0 0 0 0 0 0 0 1 1 1 1 1 1 0 0 0 1 1 1 1 1 1 1 1 1 1 1 1 1 1 1 1 1 1 1
0 0 0 0 0 0 0 0 0 0 0 0 0 0 0 0 1 1 1 1 1 1 0 0 0 0 1 1 2 2 2 1 1 1 1 1 1 1 1 1 1 1 1 1
0 0 0 0 0 0 0 0 0 0 0 0 0 0 0 0 1 1 1 1 1 1 0 0 0 0 0 1 1 2 2 1 1 1 1 1 1 1 1 1 1 1 1 1
0 0 0 0 0 0 0 0 0 0 0 0 0 0 0 0 0 0 0 1 1 0 0 0 0 0 0 1 1 2 2 2 1 1 1 1 1 1 1 1 1 1 1 0
0 0 0 0 0 0 0 0 0 0 0 0 0 0 0 0 0 0 0 0 0 0 0 1 1 1 1 1 1 2 2 2 1 1 1 1 1 1 0 0 0 0 0 0
0 0 0 0 0 0 0 0 0 0 0 0 0 0 0 0 0 0 0 0 0 0 1 1 1 1 0 0 1 2 3 2 2 1 1 0 0 0 0 0 0 0 0 0
0 0 0 0 0 0 0 0 0 0 0 0 0 0 0 0 0 0 0 0 0 1 1 1 1 0 0 0 0 1 3 3 2 1 0 0 0 0 0 0 0 0 0 0
0 0 0 0 0 0 0 0 0 0 0 0 0 0 0 0 0 0 0 0 1 1 1 1 0 0 0 0 0 1 2 2 1 1 0 0 0 0 0 0 0 0 0 0
0 0 0 0 0 0 0 0 0 0 0 0 0 0 0 0 0 0 0 0 0 0 0 0 0 0 0 0 0 1 2 2 1 1 0 0 0 0 0 0 0 0 0 0
0 1 1 0 0 0 0 0 0 0 0 0 0 0 0 0 0 0 0 0 0 0 0 0 0 0 0 0 0 1 1 1 1 1 0 0 0 0 0 0 0 0 0 0
0 1 1 0 0 0 0 0 0 0 0 0 0 0 0 0 0 0 0 0 0 0 0 0 0 0 0 0 0 1 1 1 1 1 0 0 0 0 0 0 0 0 0 0
0 0 0 0 0 0 0 0 0 0 0 0 0 0 0 0 0 0 0 0 0 0 0 0 0 0 0 0 0 1 1 1 1 1 0 0 0 0 0 0 0 0 0 0
0 0 0 0 0 0 0 0 0 0 0 0 0 0 0 0 0 0 0 0 0 0 0 0 0 0 0 0 0 1 1 1 1 1 0 1 1 0 0 0 0 0 0 0
Wind_Speed
7 6 6 6 6 6 6 6 5 2 3 3 4 3 5 5 5 4 4 4 4 5 5 5 5 5 4 4 4 5 4 3 3 2 2 2 2 1 2 1 2 2 2 2
7 7 5 4 5 6 7 7 5 3 2 3 4 3 3 5 5 4 3 3 4 5 6 5 5 4 4 4 4 4 4 4 3 2 2 2 2 1 2 2 2 2 2 2
8 2 2 5 6 6 7 6 5 4 2 5 5 4 5 6 5 4 4 3 5 5 6 5 5 4 4 4 3 4 4 4 3 3 2 2 2 2 2 2 2 2 3 3
5 3 3 6 6 6 6 4 5 6 5 5 7 4 5 7 6 6 5 4 4 5 5 5 4 4 5 4 4 4 4 4 3 3 3 3 2 1 1 1 1 2 3 3
4 3 4 5 4 5 5 5 6 8 8 9 9 6 4 8 7 6 6 5 4 5 5 5 4 4 5 5 4 4 4 4 4 3 3 2 2 1 1 1 2 2 2 2
6 3 2 4 4 4 5 7 9 9 7 8 9 7 3 4 7 7 7 6 5 5 5 6 5 5 5 5 4 4 4 4 3 3 3 2 2 2 2 2 1 1 1 1
7 7 4 2 5 5 6 5 4 4 6 5 3 3 3 6 6 7 7 6 5 5 5 5 5 4 4 4 3 3 4 3 3 2 2 2 2 2 2 2 1 1 1 1
6 6 5 3 4 5 6 6 4 5 4 3 1 1 6 8 8 8 7 6 5 5 5 5 5 4 3 3 3 3 3 2 3 2 2 2 2 1 1 1 1 0 0 1
6 1 3 3 3 5 6 5 6 7 9 7 3 4 6 7 8 7 6 6 5 4 4 5 5 4 3 3 2 2 2 2 2 2 2 2 2 1 0 0 1 0 0 0
7 6 3 4 4 6 6 6 5 4 4 5 4 1 4 7 7 6 5 5 5 4 3 4 4 4 3 3 2 2 2 2 2 2 1 2 2 1 1 0 1 1 1 0
8 8 5 5 5 5 5 5 5 4 5 4 4 2 4 6 6 5 5 4 5 4 3 3 3 3 3 3 2 1 2 2 2 1 1 1 1 1 1 1 0 1 0 0
4 6 7 6 2 3 4 5 5 4 5 5 4 1 4 6 6 5 5 5 4 5 4 3 3 3 2 2 2 1 1 1 1 1 1 1 1 1 1 1 1 1 1 0
5 5 6 4 3 3 4 5 6 6 6 6 5 1 4 4 4 4 5 5 4 4 4 3 3 2 2 2 1 1 1 1 1 0 1 0 1 1 2 2 2 1 0 1
4 7 7 7 6 3 5 6 7 7 6 7 6 4 1 2 2 3 4 5 5 4 3 3 2 1 1 1 1 1 1 0 0 0 1 1 1 1 1 2 2 1 1 1
5 8 9 9 9 8 8 9 8 9 9 9 8 7 4 1 0 2 3 4 4 3 3 3 2 1 1 0 1 1 1 0 1 1 1 1 2 1 1 2 2 2 1 1
5 8 9 10 10 9 11 11 9 10 10 10 10 8 3 2 1 1 1 2 2 2 2 3 2 2 1 1 0 1 1 0 0 1 1 1 2 2 2 2 2 2 2 1
5 7 8 8 8 9 10 7 7 7 6 7 7 5 3 3 2 0 1 1 1 1 2 2 2 2 1 1 1 1 1 0 0 1 1 1 2 2 2 2 2 2 2 2
8 8 5 7 8 9 3 0 1 2 4 4 4 3 3 2 2 1 2 1 1 1 1 2 2 1 1 1 1 1 1 1 0 0 1 1 1 2 2 2 1 1 2 2
8 7 6 5 7 8 4 1 2 3 4 3 3 3 2 3 1 0 2 1 1 1 1 1 1 1 1 1 1 1 1 0 0 1 1 1 1 2 2 2 2 2 2 2
7 7 6 6 6 6 1 3 2 3 3 2 2 3 2 2 3 1 2 2 2 2 1 1 1 1 1 0 0 0 0 0 0 0 1 1 2 2 2 2 2 2 2 2
5 6 7 8 8 5 2 2 1 2 1 3 3 3 3 3 2 2 3 2 1 1 1 1 0 1 1 1 1 1 0 0 1 0 0 0 1 1 1 2 2 2 2 2
5 4 6 6 7 4 2 1 1 2 3 4 4 4 4 3 3 3 2 2 1 1 0 0 0 1 1 1 1 1 0 0 1 0 0 0 1 1 1 1 2 2 2 1
5 3 2 2 2 0 1 1 2 4 4 5 4 4 3 3 2 2 2 1 1 0 0 0 1 1 1 1 1 1 0 0 0 0 1 1 1 0 0 0 1 2 2 1
5 3 4 4 4 3 2 2 3 3 4 4 5 5 4 3 2 2 2 2 1 1 0 0 1 1 1 1 1 1 0 0 1 1 1 1 1 1 0 0 0 1 1 1
5 4 5 6 5 4 3 2 3 3 3 4 4 4 4 3 3 3 2 2 1 1 0 1 1 1 1 1 1 1 1 1 1 2 2 1 1 1 1 0 0 0 1 1
6 6 6 5 4 4 3 3 4 4 4 4 4 4 3 3 3 3 2 1 1 1 1 1 1 1 1 1 1 1 1 1 1 1 1 0 0 1 1 1 0 1 1 1
Wind_Direction
212 221 228 237 248 258 276 278 272 247 165 212 228 220 173 174 188 192 174 152 136 120 104 91 89 88 77 58 56 63 61 69 84 80 84 82 76 74 73 60 58 61 66 77
220 227 239 260 262 267 272 272 272 247 167 242 237 224 191 181 184 184 177 144 131 114 101 85 77 87 77 57 50 68 58 58 71 64 75 89 93 87 86 63 50 46 53 65
238 222 229 253 260 258 265 277 284 291 268 244 249 237 207 190 170 153 134 115 106 108 107 101 86 75 80 69 49 65 64 61 67 70 65 67 67 65 68 61 52 39 46 50
252 240 252 257 265 274 274 311 305 291 279 263 231 245 200 175 163 159 144 122 108 104 104 96 89 89 84 67 43 55 66 63 64 83 78 82 88 82 81 77 63 54 51 45
252 241 251 266 293 299 303 318 290 277 272 274 256 252 191 165 170 160 143 131 113 109 105 101 86 89 93 81 58 48 53 60 56 64 86 85 79 80 79 74 71 60 61 47
267 253 264 283 288 276 292 281 265 254 263 259 249 247 176 166 160 149 137 128 117 110 108 104 92 85 88 85 73 57 61 55 56 59 75 88 82 73 73 67 63 45 60 53
234 220 200 254 274 247 257 276 275 235 221 240 235 234 111 105 118 122 121 121 119 111 106 103 99 91 88 90 79 67 65 64 52 59 65 74 85 77 83 74 65 52 43 6
257 217 186 196 257 276 264 258 274 294 296 315 249 177 109 104 95 104 111 111 109 108 109 110 109 100 93 89 81 78 70 64 54 44 43 61 72 66 74 89 83 60 206 232
311 330 145 176 251 276 278 269 277 287 292 286 251 123 120 118 115 112 114 113 111 107 111 114 112 103 93 89 75 79 84 69 56 42 37 43 53 33 60 93 97 148 283 269
298 293 226 180 214 232 266 297 296 274 288 286 279 193 148 149 143 137 129 124 120 116 113 112 110 105 98 97 92 76 86 84 59 35 24 45 35 353 309 118 129 242 233 264
286 282 254 208 214 235 227 248 265 277 275 289 303 46 64 130 131 133 131 127 125 126 127 121 116 113 105 96 91 74 68 63 48 19 5 46 43 356 359 353 9 307 305 58
282 287 275 253 210 211 249 265 269 269 283 290 290 16 70 90 102 119 126 127 129 133 133 127 120 122 116 106 100 78 48 55 56 5 344 28 30 341 359 346 314 296 315 308
326 280 273 236 190 200 239 249 260 271 275 270 271 214 115 101 100 116 132 133 129 127 126 124 124 130 132 132 134 119 103 75 71 337 335 356 19 357 348 338 325 312 317 281
290 274 277 281 305 301 265 258 255 258 263 269 272 277 199 160 146 143 144 138 132 137 140 135 133 135 128 130 144 128 96 80 26 27 358 352 343 351 345 328 333 326 324 348
255 268 278 284 291 291 284 278 265 254 257 265 277 291 297 322 100 131 131 134 142 155 151 149 156 156 157 173 175 121 115 50 0 54 19 336 330 329 337 343 342 348 345 348
251 268 277 278 276 275 276 270 261 260 264 267 274 284 317 332 25 72 107 138 151 157 166 159 171 175 179 179 123 115 109 93 21 40 26 348 328 340 343 338 343 349 346 339
270 272 278 277 281 280 268 266 256 253 265 276 275 288 328 317 327 38 88 116 181 181 170 170 176 182 190 192 185 169 169 184 103 43 11 5 348 345 338 330 342 338 342 332
271 278 274 276 279 263 271 327 308 281 279 284 291 313 325 340 31 69 83 58 163 161 150 159 163 178 177 177 174 178 180 155 125 70 2 4 352 343 339 331 325 336 330 315
245 258 266 265 269 272 264 278 324 296 290 308 312 335 7 15 359 108 72 47 28 74 107 137 163 150 133 159 213 187 176 163 130 57 6 348 349 342 344 341 335 335 314 313
233 241 250 259 264 269 0 48 11 295 257 25 0 343 349 334 301 307 42 29 29 45 49 71 119 115 127 172 241 225 203 234 277 28 357 4 350 339 343 340 338 328 312 306
213 225 236 250 257 265 9 28 345 276 18 25 2 347 334 317 330 3 6 359 36 46 39 56 114 131 134 178 248 267 226 298 330 3 5 25 330 330 353 344 334 328 326 325
239 232 232 241 244 246 45 16 322 1 8 357 358 356 351 350 16 22 13 8 39 58 62 89 80 107 146 174 221 263 234 46 18 14 279 280 290 312 348 349 333 332 317 306
240 244 266 257 248 218 315 312 9 11 353 352 346 349 342 331 350 350 347 343 316 267 235 164 173 186 187 192 211 243 199 121 332 258 241 255 253 247 280 319 324 328 324 337
271 272 265 269 264 281 300 10 15 355 338 343 343 341 334 323 318 308 292 285 274 261 292 272 198 209 216 201 214 207 162 232 256 252 253 245 243 229 209 180 340 359 345 345
291 294 274 267 270 280 272 313 320 326 326 329 327 326 319 306 292 283 275 264 258 260 227 264 244 225 235 227 201 171 164 217 258 258 259 256 216 209 168 141 324 202 271 248
269 272 262 266 296 300 315 342 337 326 318 311 310 311 307 298 291 290 287 278 266 252 242 238 258 255 249 263 249 190 178 210 249 267 272 263 206 181 168 167 22 24 260 312